Time,TemperatureF,DewpointF,PressureIn,WindDirection,WindDirectionDegrees,WindSpeedMPH,WindSpeedGustMPH,Humidity,HourlyPrecipIn,Conditions,Clouds,dailyrainin,SoftwareType,DateUTC
2013-10-09 00:04:00,54.4,49.7,29.71,WSW,244,0.0,1.0,84,0.00,,---,0.00,VWS V14.01,2013-10-09 07:04:00,
2013-10-09 00:10:00,54.2,49.5,29.71,ENE,69,0.0,1.0,84,0.00,,---,0.00,VWS V14.01,2013-10-09 07:10:00,
2013-10-09 00:15:00,54.2,49.5,29.71,ENE,69,0.0,1.0,84,0.00,,---,0.00,VWS V14.01,2013-10-09 07:15:00,
2013-10-09 00:20:00,54.1,49.4,29.70,SSW,213,4.0,4.0,84,0.00,,---,0.00,VWS V14.01,2013-10-09 07:20:00,
2013-10-09 00:25:00,54.1,49.7,29.70,SW,221,3.0,6.0,85,0.00,,---,0.00,VWS V14.01,2013-10-09 07:25:00,
2013-10-09 00:30:00,54.1,49.7,29.70,SW,220,0.0,6.0,85,0.00,,---,0.00,VWS V14.01,2013-10-09 07:30:00,
2013-10-09 00:35:00,54.1,49.7,29.69,SW,220,0.0,0.0,85,0.00,,---,0.00,VWS V14.01,2013-10-09 07:35:00,
2013-10-09 00:40:00,54.1,49.7,29.69,West,273,3.0,5.0,85,0.00,,---,0.00,VWS V14.01,2013-10-09 07:40:00,
2013-10-09 00:45:00,54.1,49.7,29.69,WSW,254,0.0,5.0,85,0.00,,---,0.00,VWS V14.01,2013-10-09 07:45:00,
2013-10-09 00:50:00,53.9,49.5,29.69,SSE,162,0.0,5.0,85,0.00,,---,0.00,VWS V14.01,2013-10-09 07:50:00,
2013-10-09 00:55:00,54.1,49.7,29.69,SSE,162,0.0,5.0,85,0.00,,---,0.00,VWS V14.01,2013-10-09 07:55:00,
2013-10-09 01:00:00,54.1,49.7,29.69,SSE,163,0.0,5.0,85,0.00,,---,0.00,VWS V14.01,2013-10-09 08:00:00,
2013-10-09 01:05:00,53.9,49.2,29.69,SSW,213,0.0,3.0,84,0.00,,---,0.00,VWS V14.01,2013-10-09 08:05:00,
2013-10-09 01:10:00,53.9,49.2,29.69,SSW,213,0.0,3.0,84,0.00,,---,0.00,VWS V14.01,2013-10-09 08:10:00,
2013-10-09 01:15:00,54.1,49.4,29.69,SSW,213,0.0,3.0,84,0.00,,---,0.00,VWS V14.01,2013-10-09 08:15:00,
2013-10-09 01:21:00,54.1,49.1,29.69,West,277,0.0,4.0,83,0.00,,---,0.00,VWS V14.01,2013-10-09 08:21:00,
2013-10-09 01:26:00,54.1,49.1,29.69,West,277,0.0,4.0,83,0.00,,---,0.00,VWS V14.01,2013-10-09 08:26:00,
2013-10-09 01:31:00,54.1,49.1,29.69,SW,216,0.0,4.0,83,0.00,,---,0.00,VWS V14.01,2013-10-09 08:31:00,
2013-10-09 01:36:00,53.9,48.9,29.69,South,190,0.0,0.0,83,0.00,,---,0.00,VWS V14.01,2013-10-09 08:36:00,
2013-10-09 01:41:00,53.9,48.9,29.69,South,190,0.0,1.0,83,0.00,,---,0.00,VWS V14.01,2013-10-09 08:41:00,
2013-10-09 01:46:00,53.9,48.9,29.68,South,190,0.0,1.0,83,0.00,,---,0.00,VWS V14.01,2013-10-09 08:46:00,
2013-10-09 01:51:00,54.1,49.1,29.68,South,190,0.0,1.0,83,0.00,,---,0.00,VWS V14.01,2013-10-09 08:51:00,
2013-10-09 01:56:00,54.1,49.1,29.68,South,190,0.0,1.0,83,0.00,,---,0.00,VWS V14.01,2013-10-09 08:56:00,
2013-10-09 02:01:00,54.1,49.1,29.68,South,190,0.0,1.0,83,0.00,,---,0.00,VWS V14.01,2013-10-09 09:01:00,
2013-10-09 02:06:00,54.1,49.1,29.68,South,190,0.0,0.0,83,0.00,,---,0.00,VWS V14.01,2013-10-09 09:06:00,
2013-10-09 02:11:00,54.2,49.2,29.68,South,190,0.0,0.0,83,0.00,,---,0.00,VWS V14.01,2013-10-09 09:11:00,
2013-10-09 02:16:00,54.2,49.2,29.67,South,190,0.0,0.0,83,0.00,,---,0.00,VWS V14.01,2013-10-09 09:16:00,
2013-10-09 02:21:00,54.2,49.2,29.67,South,190,0.0,0.0,83,0.00,,---,0.00,VWS V14.01,2013-10-09 09:21:00,
2013-10-09 02:26:00,54.2,49.0,29.67,South,190,0.0,-999.0,83,-99.99,,,0.00,weatherlink.com 1.10,2013-10-09 09:26:00,
2013-10-09 02:31:00,54.2,49.2,29.67,West,277,0.0,4.0,83,0.00,,---,0.00,VWS V14.01,2013-10-09 09:31:00,
2013-10-09 02:36:00,54.2,49.2,29.67,West,277,0.0,2.0,83,0.00,,---,0.00,VWS V14.01,2013-10-09 09:36:00,
2013-10-09 02:42:00,54.2,49.2,29.67,West,277,0.0,2.0,83,0.00,,---,0.00,VWS V14.01,2013-10-09 09:42:00,
2013-10-09 02:47:00,54.1,49.1,29.67,West,277,0.0,2.0,83,0.00,,---,0.00,VWS V14.01,2013-10-09 09:47:00,
2013-10-09 02:52:00,53.9,48.9,29.67,West,277,0.0,2.0,83,0.00,,---,0.00,VWS V14.01,2013-10-09 09:52:00,
2013-10-09 02:57:00,53.9,48.9,29.67,West,277,0.0,2.0,83,0.00,,---,0.00,VWS V14.01,2013-10-09 09:57:00,
2013-10-09 03:02:00,53.9,49.2,29.66,West,277,0.0,2.0,84,0.00,,---,0.00,VWS V14.01,2013-10-09 10:02:00,
2013-10-09 03:07:00,53.9,49.2,29.66,West,277,0.0,0.0,84,0.00,,---,0.00,VWS V14.01,2013-10-09 10:07:00,
2013-10-09 03:12:00,53.8,49.1,29.66,West,277,0.0,0.0,84,0.00,,---,0.00,VWS V14.01,2013-10-09 10:12:00,
2013-10-09 03:18:00,53.9,49.2,29.66,West,277,0.0,0.0,84,0.00,,---,0.00,VWS V14.01,2013-10-09 10:18:00,
2013-10-09 03:23:00,53.8,49.1,29.66,West,277,0.0,0.0,84,0.00,,---,0.00,VWS V14.01,2013-10-09 10:23:00,
2013-10-09 03:28:00,53.8,49.1,29.66,ENE,63,0.0,1.0,84,0.00,,---,0.00,VWS V14.01,2013-10-09 10:28:00,
2013-10-09 03:33:00,53.6,49.2,29.65,ENE,61,0.0,1.0,85,0.00,,---,0.00,VWS V14.01,2013-10-09 10:33:00,
2013-10-09 03:38:00,53.6,49.2,29.65,ENE,68,0.0,1.0,85,0.00,,---,0.00,VWS V14.01,2013-10-09 10:38:00,
2013-10-09 03:43:00,53.5,49.1,29.65,ENE,68,0.0,1.0,85,0.00,,---,0.00,VWS V14.01,2013-10-09 10:43:00,
2013-10-09 03:48:00,53.5,49.1,29.64,NE,48,0.0,1.0,85,0.00,,---,0.00,VWS V14.01,2013-10-09 10:48:00,
2013-10-09 03:53:00,53.5,49.1,29.64,NE,48,0.0,1.0,85,0.00,,---,0.00,VWS V14.01,2013-10-09 10:53:00,
2013-10-09 03:58:00,53.5,49.1,29.64,NE,49,0.0,1.0,85,0.00,,---,0.00,VWS V14.01,2013-10-09 10:58:00,
2013-10-09 04:03:00,53.5,48.8,29.64,NE,49,0.0,1.0,84,0.00,,---,0.00,VWS V14.01,2013-10-09 11:03:00,
2013-10-09 04:08:00,53.3,48.6,29.64,NE,50,0.0,3.0,84,0.00,,---,0.00,VWS V14.01,2013-10-09 11:08:00,
2013-10-09 04:13:00,53.3,48.3,29.64,SE,132,0.0,5.0,83,0.00,,---,0.00,VWS V14.01,2013-10-09 11:13:00,
2013-10-09 04:19:00,53.5,48.5,29.63,SE,139,0.0,5.0,83,0.00,,---,0.00,VWS V14.01,2013-10-09 11:19:00,
2013-10-09 04:24:00,53.5,48.5,29.63,SW,219,0.0,5.0,83,0.00,,---,0.00,VWS V14.01,2013-10-09 11:24:00,
2013-10-09 04:29:00,53.6,48.6,29.63,West,263,0.0,5.0,83,0.00,,---,0.00,VWS V14.01,2013-10-09 11:29:00,
2013-10-09 04:34:00,53.6,48.2,29.63,West,263,0.0,0.0,82,0.00,,---,0.00,VWS V14.01,2013-10-09 11:34:00,
2013-10-09 04:39:00,53.6,48.6,29.63,West,263,0.0,0.0,83,0.00,,---,0.00,VWS V14.01,2013-10-09 11:39:00,
2013-10-09 04:44:00,53.6,48.6,29.63,South,183,0.0,1.0,83,0.00,,---,0.00,VWS V14.01,2013-10-09 11:44:00,
2013-10-09 04:49:00,53.8,48.8,29.63,South,184,0.0,1.0,83,0.00,,---,0.00,VWS V14.01,2013-10-09 11:49:00,
2013-10-09 04:54:00,53.8,48.8,29.63,WSW,243,0.0,4.0,83,0.00,,---,0.00,VWS V14.01,2013-10-09 11:54:00,
2013-10-09 04:59:00,53.8,48.8,29.63,WSW,254,0.0,4.0,83,0.00,,---,0.00,VWS V14.01,2013-10-09 11:59:00,
2013-10-09 05:03:00,53.8,48.8,29.61,WSW,254,0.0,0.0,83,0.00,,---,0.00,VWS V14.01,2013-10-09 12:03:00,
2013-10-09 05:08:00,53.8,48.8,29.61,WSW,254,0.0,0.0,83,0.00,,---,0.00,VWS V14.01,2013-10-09 12:08:00,
2013-10-09 05:13:00,53.8,49.1,29.61,West,263,0.0,0.0,84,0.00,,---,0.00,VWS V14.01,2013-10-09 12:13:00,
2013-10-09 05:18:00,53.6,48.9,29.62,WNW,283,0.0,5.0,84,0.00,,---,0.00,VWS V14.01,2013-10-09 12:18:00,
2013-10-09 05:23:00,53.6,48.9,29.62,WNW,283,0.0,5.0,84,0.00,,---,0.00,VWS V14.01,2013-10-09 12:23:00,
2013-10-09 05:28:00,53.5,48.8,29.62,NW,313,0.0,5.0,84,0.00,,---,0.00,VWS V14.01,2013-10-09 12:28:00,
2013-10-09 05:33:00,53.5,48.8,29.62,NW,313,0.0,0.0,84,0.00,,---,0.00,VWS V14.01,2013-10-09 12:33:00,
2013-10-09 05:38:00,53.5,49.1,29.62,WNW,291,1.0,1.0,85,0.00,,---,0.00,VWS V14.01,2013-10-09 12:38:00,
2013-10-09 05:43:00,53.5,49.1,29.62,SW,225,0.0,3.0,85,0.00,,---,0.00,VWS V14.01,2013-10-09 12:43:00,
2013-10-09 05:48:00,53.5,49.1,29.61,WSW,257,0.0,5.0,85,0.00,,---,0.00,VWS V14.01,2013-10-09 12:48:00,
2013-10-09 05:54:00,53.5,49.1,29.61,WSW,257,0.0,5.0,85,0.00,,---,0.00,VWS V14.01,2013-10-09 12:54:00,
2013-10-09 05:59:00,53.5,49.1,29.61,West,281,0.0,5.0,85,0.00,,---,0.00,VWS V14.01,2013-10-09 12:59:00,
2013-10-09 06:04:00,53.5,49.1,29.61,West,281,0.0,0.0,85,0.00,,---,0.00,VWS V14.01,2013-10-09 13:04:00,
2013-10-09 06:09:00,53.5,49.1,29.61,West,281,0.0,3.0,85,0.00,,---,0.00,VWS V14.01,2013-10-09 13:09:00,
2013-10-09 06:14:00,53.5,48.8,29.61,West,281,0.0,3.0,84,0.00,,---,0.00,VWS V14.01,2013-10-09 13:14:00,
2013-10-09 06:19:00,53.5,48.8,29.61,West,281,0.0,3.0,84,0.00,,---,0.00,VWS V14.01,2013-10-09 13:19:00,
2013-10-09 06:24:00,53.5,48.8,29.61,West,281,0.0,3.0,84,0.00,,---,0.00,VWS V14.01,2013-10-09 13:24:00,
2013-10-09 06:29:00,53.5,48.8,29.61,West,281,0.0,3.0,84,0.00,,---,0.00,VWS V14.01,2013-10-09 13:29:00,
2013-10-09 06:34:00,53.3,48.6,29.61,North,360,0.0,0.0,84,0.00,,---,0.00,VWS V14.01,2013-10-09 13:34:00,
2013-10-09 06:39:00,53.3,48.6,29.61,North,11,0.0,2.0,84,0.00,,---,0.00,VWS V14.01,2013-10-09 13:39:00,
2013-10-09 06:44:00,53.3,48.9,29.61,WNW,289,0.0,2.0,85,0.00,,---,0.00,VWS V14.01,2013-10-09 13:44:00,
2013-10-09 06:49:00,53.2,48.8,29.62,SW,228,0.0,2.0,85,0.00,,---,0.00,VWS V14.01,2013-10-09 13:49:00,
2013-10-09 06:54:00,53.2,49.1,29.62,SW,229,0.0,2.0,86,0.00,,---,0.00,VWS V14.01,2013-10-09 13:54:00,
2013-10-09 06:59:00,53.2,49.1,29.62,SW,229,0.0,2.0,86,0.00,,---,0.00,VWS V14.01,2013-10-09 13:59:00,
2013-10-09 07:04:00,53.2,49.1,29.62,NNE,27,0.0,0.0,86,0.00,,---,0.00,VWS V14.01,2013-10-09 14:04:00,
2013-10-09 07:09:00,53.1,49.0,29.62,NE,53,0.0,0.0,86,0.00,,---,0.00,VWS V14.01,2013-10-09 14:09:00,
2013-10-09 07:15:00,52.9,49.1,29.62,NE,53,0.0,0.0,87,0.00,,---,0.00,VWS V14.01,2013-10-09 14:15:00,
2013-10-09 07:20:00,52.9,49.1,29.61,NE,53,0.0,0.0,87,0.00,,---,0.00,VWS V14.01,2013-10-09 14:20:00,
2013-10-09 07:25:00,52.8,49.0,29.61,SE,142,0.0,2.0,87,0.00,,---,0.00,VWS V14.01,2013-10-09 14:25:00,
2013-10-09 07:30:00,52.6,48.8,29.61,SE,142,0.0,2.0,87,0.00,,---,0.00,VWS V14.01,2013-10-09 14:30:00,
2013-10-09 07:35:00,52.6,49.2,29.61,SE,137,0.0,1.0,88,0.00,,---,0.00,VWS V14.01,2013-10-09 14:35:00,
2013-10-09 07:40:00,52.5,49.0,29.61,SSE,162,0.0,2.0,88,0.00,,---,0.00,VWS V14.01,2013-10-09 14:40:00,
2013-10-09 07:45:00,52.5,49.4,29.61,SSE,162,0.0,2.0,89,0.00,,---,0.00,VWS V14.01,2013-10-09 14:45:00,
2013-10-09 07:50:00,52.5,49.4,29.62,SSE,162,0.0,2.0,89,0.00,,---,0.00,VWS V14.01,2013-10-09 14:50:00,
2013-10-09 07:55:00,52.5,49.4,29.62,SSE,162,0.0,2.0,89,0.00,,---,0.00,VWS V14.01,2013-10-09 14:55:00,
2013-10-09 08:00:00,52.3,49.2,29.62,SSE,162,0.0,2.0,89,0.00,,---,0.00,VWS V14.01,2013-10-09 15:00:00,
2013-10-09 08:05:00,52.3,49.5,29.61,SSE,162,0.0,1.0,90,0.00,,---,0.00,VWS V14.01,2013-10-09 15:05:00,
2013-10-09 08:10:00,52.2,49.4,29.61,South,183,0.0,1.0,90,0.00,,---,0.00,VWS V14.01,2013-10-09 15:10:00,
2013-10-09 08:16:00,52.2,49.4,29.61,South,182,0.0,1.0,90,0.00,,---,0.00,VWS V14.01,2013-10-09 15:16:00,
2013-10-09 08:21:00,52.2,49.4,29.61,East,93,0.0,2.0,90,0.00,,---,0.00,VWS V14.01,2013-10-09 15:21:00,
2013-10-09 08:26:00,52.0,49.2,29.61,NW,325,0.0,2.0,90,0.00,,---,0.00,VWS V14.01,2013-10-09 15:26:00,
2013-10-09 08:31:00,52.0,49.2,29.61,West,269,0.0,2.0,90,0.00,,---,0.00,VWS V14.01,2013-10-09 15:31:00,
2013-10-09 08:36:00,52.0,49.5,29.61,ESE,110,0.0,1.0,91,0.00,,---,0.00,VWS V14.01,2013-10-09 15:36:00,
2013-10-09 08:41:00,52.0,49.5,29.61,ESE,109,0.0,1.0,91,0.00,,---,0.00,VWS V14.01,2013-10-09 15:41:00,
2013-10-09 08:46:00,52.0,49.5,29.61,ESE,109,0.0,1.0,91,0.00,,---,0.00,VWS V14.01,2013-10-09 15:46:00,
2013-10-09 08:51:00,52.0,49.2,29.61,ESE,107,0.0,2.0,90,0.00,,---,0.00,VWS V14.01,2013-10-09 15:51:00,
2013-10-09 08:56:00,52.0,49.5,29.61,ESE,107,0.0,2.0,91,0.00,,---,0.00,VWS V14.01,2013-10-09 15:56:00,
2013-10-09 09:01:00,52.2,49.7,29.61,ESE,107,0.0,2.0,91,0.00,,---,0.00,VWS V14.01,2013-10-09 16:01:00,
2013-10-09 09:06:00,52.3,49.5,29.61,ESE,107,0.0,0.0,90,0.00,,---,0.00,VWS V14.01,2013-10-09 16:06:00,
2013-10-09 09:11:00,52.5,49.7,29.61,ESE,107,0.0,0.0,90,0.00,,---,0.00,VWS V14.01,2013-10-09 16:11:00,
2013-10-09 09:16:00,52.5,49.7,29.61,ESE,107,0.0,2.0,90,0.00,,---,0.00,VWS V14.01,2013-10-09 16:16:00,
2013-10-09 09:22:00,52.6,49.8,29.61,ESE,103,0.0,5.0,90,0.00,,---,0.00,VWS V14.01,2013-10-09 16:22:00,
2013-10-09 09:27:00,52.9,49.8,29.61,ESE,103,0.0,5.0,89,0.00,,---,0.00,VWS V14.01,2013-10-09 16:27:00,
2013-10-09 09:32:00,53.1,50.0,29.61,East,101,2.0,2.0,89,0.00,,---,0.00,VWS V14.01,2013-10-09 16:32:00,
2013-10-09 09:37:00,53.2,50.0,29.61,NE,34,0.0,5.0,89,0.00,,---,0.00,VWS V14.01,2013-10-09 16:37:00,
2013-10-09 09:42:00,53.5,50.0,29.61,NE,50,3.0,5.0,88,0.00,,---,0.00,VWS V14.01,2013-10-09 16:42:00,
2013-10-09 09:47:00,53.6,49.8,29.61,ENE,69,4.0,5.0,87,0.00,,---,0.00,VWS V14.01,2013-10-09 16:47:00,
2013-10-09 09:52:00,53.8,49.7,29.61,ENE,74,0.0,5.0,86,0.00,,---,0.00,VWS V14.01,2013-10-09 16:52:00,
2013-10-09 09:57:00,54.1,49.7,29.61,ENE,74,0.0,5.0,85,0.00,,---,0.00,VWS V14.01,2013-10-09 16:57:00,
2013-10-09 10:02:00,54.1,49.4,29.62,ENE,65,0.0,3.0,84,0.00,,---,0.00,VWS V14.01,2013-10-09 17:02:00,
2013-10-09 10:07:00,54.2,49.2,29.62,ENE,64,0.0,4.0,83,0.00,,---,0.00,VWS V14.01,2013-10-09 17:07:00,
2013-10-09 10:12:00,54.4,49.3,29.62,ENE,64,0.0,4.0,83,0.00,,---,0.00,VWS V14.01,2013-10-09 17:12:00,
2013-10-09 10:17:00,54.7,49.3,29.63,East,96,0.0,5.0,82,0.00,,---,0.00,VWS V14.01,2013-10-09 17:17:00,
2013-10-09 10:22:00,54.7,49.0,29.63,East,90,0.0,5.0,81,0.00,,---,0.00,VWS V14.01,2013-10-09 17:22:00,
2013-10-09 10:27:00,54.8,48.8,29.63,ENE,77,0.0,5.0,80,0.00,,---,0.00,VWS V14.01,2013-10-09 17:27:00,
2013-10-09 10:33:00,55.0,48.6,29.63,East,90,4.0,7.0,79,0.00,,---,0.00,VWS V14.01,2013-10-09 17:33:00,
2013-10-09 10:38:00,55.1,48.4,29.63,East,100,0.0,7.0,78,0.00,,---,0.00,VWS V14.01,2013-10-09 17:38:00,
2013-10-09 10:43:00,55.4,48.7,29.63,ENE,66,0.0,7.0,78,0.00,,---,0.00,VWS V14.01,2013-10-09 17:43:00,
2013-10-09 10:48:00,55.9,48.5,29.63,ENE,58,0.0,7.0,76,0.00,,---,0.00,VWS V14.01,2013-10-09 17:48:00,
2013-10-09 10:53:00,56.3,48.1,29.63,SE,125,0.0,7.0,74,0.00,,---,0.00,VWS V14.01,2013-10-09 17:53:00,
2013-10-09 10:58:00,56.7,48.5,29.63,ENE,70,1.0,7.0,74,0.00,,---,0.00,VWS V14.01,2013-10-09 17:58:00,
2013-10-09 11:03:00,57.0,47.7,29.63,SSE,151,0.0,0.0,71,0.00,,---,0.00,VWS V14.01,2013-10-09 18:03:00,
2013-10-09 11:08:00,57.6,48.3,29.63,SE,144,5.0,5.0,71,0.00,,---,0.00,VWS V14.01,2013-10-09 18:08:00,
2013-10-09 11:13:00,58.4,48.3,29.63,East,93,2.0,5.0,69,0.00,,---,0.00,VWS V14.01,2013-10-09 18:13:00,
2013-10-09 11:18:00,58.6,48.1,29.63,South,186,0.0,5.0,68,0.00,,---,0.00,VWS V14.01,2013-10-09 18:18:00,
2013-10-09 11:23:00,59.0,48.1,29.63,NNE,25,0.0,5.0,67,0.00,,---,0.00,VWS V14.01,2013-10-09 18:23:00,
2013-10-09 11:28:00,59.6,47.4,29.63,ENE,66,0.0,6.0,64,0.00,,---,0.00,VWS V14.01,2013-10-09 18:28:00,
2013-10-09 11:33:00,59.9,47.3,29.62,SW,222,0.0,0.0,63,0.00,,---,0.00,VWS V14.01,2013-10-09 18:33:00,
2013-10-09 11:38:00,60.2,47.6,29.62,East,88,3.0,4.0,63,0.00,,---,0.00,VWS V14.01,2013-10-09 18:38:00,
2013-10-09 11:43:00,60.1,47.0,29.62,ENE,57,2.0,7.0,62,0.00,,---,0.00,VWS V14.01,2013-10-09 18:43:00,
2013-10-09 11:49:00,60.2,47.2,29.62,SSW,205,0.0,7.0,62,0.00,,---,0.00,VWS V14.01,2013-10-09 18:49:00,
2013-10-09 11:54:00,60.5,47.0,29.62,South,188,0.0,7.0,61,0.00,,---,0.00,VWS V14.01,2013-10-09 18:54:00,
2013-10-09 11:59:00,60.7,46.8,29.62,South,190,0.0,7.0,60,0.00,,---,0.00,VWS V14.01,2013-10-09 18:59:00,
2013-10-09 12:04:00,60.4,46.5,29.62,NNE,33,0.0,0.0,60,0.00,,---,0.00,VWS V14.01,2013-10-09 19:04:00,
2013-10-09 12:09:00,60.4,47.3,29.62,NNE,33,0.0,0.0,62,0.00,,---,0.00,VWS V14.01,2013-10-09 19:09:00,
2013-10-09 12:14:00,60.2,46.7,29.62,ESE,122,0.0,4.0,61,0.00,,---,0.00,VWS V14.01,2013-10-09 19:14:00,
2013-10-09 12:19:00,60.4,47.3,29.62,WNW,294,0.0,4.0,62,0.00,,---,0.00,VWS V14.01,2013-10-09 19:19:00,
2013-10-09 12:24:00,60.7,48.0,29.62,WNW,288,0.0,5.0,63,0.00,,---,0.00,VWS V14.01,2013-10-09 19:24:00,
2013-10-09 12:29:00,61.0,47.9,29.62,WNW,288,0.0,5.0,62,0.00,,---,0.00,VWS V14.01,2013-10-09 19:29:00,
2013-10-09 12:34:00,61.2,47.7,29.62,WNW,288,0.0,0.0,61,0.00,,---,0.00,VWS V14.01,2013-10-09 19:34:00,
2013-10-09 12:39:00,61.3,47.8,29.62,WNW,288,0.0,0.0,61,0.00,,---,0.00,VWS V14.01,2013-10-09 19:39:00,
2013-10-09 12:44:00,61.3,47.3,29.62,WNW,288,0.0,0.0,60,0.00,,---,0.00,VWS V14.01,2013-10-09 19:44:00,
2013-10-09 12:49:00,61.6,47.2,29.61,WNW,288,0.0,3.0,59,0.00,,---,0.00,VWS V14.01,2013-10-09 19:49:00,
2013-10-09 12:54:00,62.0,47.5,29.61,WNW,288,0.0,3.0,59,0.00,,---,0.00,VWS V14.01,2013-10-09 19:54:00,
2013-10-09 12:59:00,62.3,47.3,29.61,NW,323,0.0,4.0,58,0.00,,---,0.00,VWS V14.01,2013-10-09 19:59:00,
2013-10-09 13:04:00,62.7,48.2,29.61,WSW,249,2.0,5.0,59,0.00,,---,0.00,VWS V14.01,2013-10-09 20:04:00,
2013-10-09 13:10:00,63.2,47.7,29.61,NNW,327,0.0,5.0,57,0.00,,---,0.00,VWS V14.01,2013-10-09 20:10:00,
2013-10-09 13:15:00,63.2,47.3,29.61,NNW,345,4.0,7.0,56,0.00,,---,0.00,VWS V14.01,2013-10-09 20:15:00,
2013-10-09 13:20:00,63.7,47.7,29.61,West,259,0.0,7.0,56,0.00,,---,0.00,VWS V14.01,2013-10-09 20:20:00,
2013-10-09 13:25:00,63.9,48.4,29.61,West,269,4.0,9.0,57,0.00,,---,0.00,VWS V14.01,2013-10-09 20:25:00,
2013-10-09 13:30:00,64.7,49.1,29.61,WNW,286,4.0,9.0,57,0.00,,---,0.00,VWS V14.01,2013-10-09 20:30:00,
2013-10-09 13:35:00,64.7,49.6,29.61,West,267,0.0,6.0,58,0.00,,---,0.00,VWS V14.01,2013-10-09 20:35:00,
2013-10-09 13:40:00,64.7,48.7,29.61,WSW,254,0.0,6.0,56,0.00,,---,0.00,VWS V14.01,2013-10-09 20:40:00,
2013-10-09 13:45:00,64.8,48.8,29.61,West,277,0.0,6.0,56,0.00,,---,0.00,VWS V14.01,2013-10-09 20:45:00,
2013-10-09 13:50:00,65.2,49.1,29.61,West,263,4.0,7.0,56,0.00,,---,0.00,VWS V14.01,2013-10-09 20:50:00,
2013-10-09 13:55:00,65.3,48.7,29.61,WSW,245,0.0,7.0,55,0.00,,---,0.00,VWS V14.01,2013-10-09 20:55:00,
2013-10-09 14:00:00,65.5,48.9,29.61,WSW,250,2.0,7.0,55,0.00,,---,0.00,VWS V14.01,2013-10-09 21:00:00,
2013-10-09 14:05:00,65.6,49.0,29.60,WNW,283,6.0,6.0,55,0.00,,---,0.00,VWS V14.01,2013-10-09 21:05:00,
2013-10-09 14:10:00,66.3,48.7,29.60,WSW,245,0.0,8.0,53,0.00,,---,0.00,VWS V14.01,2013-10-09 21:10:00,
2013-10-09 14:15:00,66.3,48.7,29.60,WNW,296,0.0,8.0,53,0.00,,---,0.00,VWS V14.01,2013-10-09 21:15:00,
2013-10-09 14:21:00,66.4,49.3,29.60,WNW,299,4.0,8.0,54,0.00,,---,0.00,VWS V14.01,2013-10-09 21:21:00,
2013-10-09 14:26:00,66.4,48.8,29.60,WSW,246,0.0,10.0,53,0.00,,---,0.00,VWS V14.01,2013-10-09 21:26:00,
2013-10-09 14:31:00,66.4,48.3,29.60,WSW,246,7.0,10.0,52,0.00,,---,0.00,VWS V14.01,2013-10-09 21:31:00,
2013-10-09 14:36:00,66.3,48.7,29.61,West,269,2.0,6.0,53,0.00,,---,0.00,VWS V14.01,2013-10-09 21:36:00,
2013-10-09 14:41:00,66.1,48.5,29.61,NNW,338,2.0,6.0,53,0.00,,---,0.00,VWS V14.01,2013-10-09 21:41:00,
2013-10-09 14:46:00,66.3,48.7,29.61,West,261,1.0,9.0,53,0.00,,---,0.00,VWS V14.01,2013-10-09 21:46:00,
2013-10-09 14:51:00,65.6,48.5,29.61,West,277,0.0,9.0,54,0.00,,---,0.00,VWS V14.01,2013-10-09 21:51:00,
2013-10-09 14:56:00,65.5,48.9,29.61,WSW,256,0.0,9.0,55,0.00,,---,0.00,VWS V14.01,2013-10-09 21:56:00,
2013-10-09 15:01:00,65.5,48.4,29.61,NW,313,0.0,9.0,54,0.00,,---,0.00,VWS V14.01,2013-10-09 22:01:00,
2013-10-09 15:06:00,65.5,48.4,29.61,SW,223,2.0,6.0,54,0.00,,---,0.00,VWS V14.01,2013-10-09 22:06:00,
2013-10-09 15:11:00,65.5,48.9,29.61,WNW,290,1.0,7.0,55,0.00,,---,0.00,VWS V14.01,2013-10-09 22:11:00,
2013-10-09 15:16:00,65.6,48.0,29.62,NW,310,0.0,7.0,53,0.00,,---,0.00,VWS V14.01,2013-10-09 22:16:00,
2013-10-09 15:21:00,65.5,48.9,29.62,WSW,248,3.0,7.0,55,0.00,,---,0.00,VWS V14.01,2013-10-09 22:21:00,
2013-10-09 15:26:00,65.6,49.0,29.62,West,278,4.0,9.0,55,0.00,,---,0.00,VWS V14.01,2013-10-09 22:26:00,
2013-10-09 15:31:00,65.6,49.0,29.62,West,277,1.0,9.0,55,0.00,,---,0.00,VWS V14.01,2013-10-09 22:31:00,
2013-10-09 15:36:00,66.0,48.9,29.62,SW,226,0.0,6.0,54,0.00,,---,0.00,VWS V14.01,2013-10-09 22:36:00,
2013-10-09 15:41:00,66.1,48.5,29.62,NW,309,0.0,8.0,53,0.00,,---,0.00,VWS V14.01,2013-10-09 22:41:00,
2013-10-09 15:47:00,66.3,48.7,29.63,West,277,0.0,8.0,53,0.00,,---,0.00,VWS V14.01,2013-10-09 22:47:00,
2013-10-09 15:52:00,66.4,48.8,29.63,WSW,251,0.0,8.0,53,0.00,,---,0.00,VWS V14.01,2013-10-09 22:52:00,
2013-10-09 15:57:00,66.4,48.8,29.63,West,259,0.0,8.0,53,0.00,,---,0.00,VWS V14.01,2013-10-09 22:57:00,
2013-10-09 16:02:00,66.3,48.7,29.63,SSW,202,1.0,8.0,53,0.00,,---,0.00,VWS V14.01,2013-10-09 23:02:00,
2013-10-09 16:07:00,66.1,48.5,29.63,West,281,1.0,6.0,53,0.00,,---,0.00,VWS V14.01,2013-10-09 23:07:00,
2013-10-09 16:12:00,66.1,48.5,29.63,West,279,0.0,6.0,53,0.00,,---,0.00,VWS V14.01,2013-10-09 23:12:00,
2013-10-09 16:17:00,66.0,48.4,29.63,SW,219,1.0,6.0,53,0.00,,---,0.00,VWS V14.01,2013-10-09 23:17:00,
2013-10-09 16:22:00,66.0,48.9,29.63,West,273,0.0,10.0,54,0.00,,---,0.00,VWS V14.01,2013-10-09 23:22:00,
2013-10-09 16:27:00,66.0,48.9,29.63,West,271,0.0,10.0,54,0.00,,---,0.00,VWS V14.01,2013-10-09 23:27:00,
2013-10-09 16:32:00,66.1,49.0,29.63,WNW,294,1.0,1.0,54,0.00,,---,0.00,VWS V14.01,2013-10-09 23:32:00,
2013-10-09 16:37:00,66.4,48.8,29.63,West,265,2.0,7.0,53,0.00,,---,0.00,VWS V14.01,2013-10-09 23:37:00,
2013-10-09 16:42:00,65.5,48.9,29.63,WSW,248,2.0,7.0,55,0.00,,---,0.00,VWS V14.01,2013-10-09 23:42:00,
2013-10-09 16:47:00,65.0,48.5,29.64,WSW,239,1.0,7.0,55,0.00,,---,0.00,VWS V14.01,2013-10-09 23:47:00,
2013-10-09 16:52:00,64.8,48.3,29.64,WSW,241,7.0,9.0,55,0.00,,---,0.00,VWS V14.01,2013-10-09 23:52:00,
2013-10-09 16:58:00,64.5,48.0,29.64,West,261,3.0,9.0,55,0.00,,---,0.00,VWS V14.01,2013-10-09 23:58:00,
2013-10-09 17:03:00,63.9,47.9,29.64,West,263,7.0,7.0,56,0.00,,---,0.00,VWS V14.01,2013-10-10 00:03:00,
2013-10-09 17:08:00,63.4,47.5,29.64,WSW,240,0.0,7.0,56,0.00,,---,0.00,VWS V14.01,2013-10-10 00:08:00,
2013-10-09 17:13:00,63.4,47.5,29.64,WSW,248,5.0,9.0,56,0.00,,---,0.00,VWS V14.01,2013-10-10 00:13:00,
2013-10-09 17:18:00,63.1,47.2,29.64,West,261,0.0,9.0,56,0.00,,---,0.00,VWS V14.01,2013-10-10 00:18:00,
2013-10-09 17:23:00,62.9,47.5,29.64,WSW,249,5.0,9.0,57,0.00,,---,0.00,VWS V14.01,2013-10-10 00:23:00,
2013-10-09 17:28:00,62.6,47.2,29.64,WNW,288,1.0,9.0,57,0.00,,---,0.00,VWS V14.01,2013-10-10 00:28:00,
2013-10-09 17:33:00,62.4,47.0,29.65,West,281,0.0,5.0,57,0.00,,---,0.00,VWS V14.01,2013-10-10 00:33:00,
2013-10-09 17:38:00,62.1,46.7,29.65,WSW,248,0.0,5.0,57,0.00,,---,0.00,VWS V14.01,2013-10-10 00:38:00,
2013-10-09 17:43:00,62.1,46.7,29.65,West,261,0.0,5.0,57,0.00,,---,0.00,VWS V14.01,2013-10-10 00:43:00,
2013-10-09 17:48:00,61.6,46.7,29.65,WSW,256,3.0,7.0,58,0.00,,---,0.00,VWS V14.01,2013-10-10 00:48:00,
2013-10-09 17:53:00,61.3,46.9,29.65,WSW,256,0.0,7.0,59,0.00,,---,0.00,VWS V14.01,2013-10-10 00:53:00,
2013-10-09 17:59:00,60.9,46.9,29.65,West,276,0.0,7.0,60,0.00,,---,0.00,VWS V14.01,2013-10-10 00:59:00,
2013-10-09 18:04:00,60.5,47.0,29.66,West,276,0.0,0.0,61,0.00,,---,0.00,VWS V14.01,2013-10-10 01:04:00,
2013-10-09 18:09:00,60.2,46.7,29.66,WSW,254,0.0,4.0,61,0.00,,---,0.00,VWS V14.01,2013-10-10 01:09:00,
2013-10-09 18:14:00,59.9,46.4,29.66,WSW,251,3.0,7.0,61,0.00,,---,0.00,VWS V14.01,2013-10-10 01:14:00,
2013-10-09 18:19:00,59.6,46.2,29.66,West,273,0.0,7.0,61,0.00,,---,0.00,VWS V14.01,2013-10-10 01:19:00,
2013-10-09 18:24:00,59.5,46.5,29.66,West,272,0.0,7.0,62,0.00,,---,0.00,VWS V14.01,2013-10-10 01:24:00,
2013-10-09 18:29:00,59.2,46.6,29.66,West,272,0.0,7.0,63,0.00,,---,0.00,VWS V14.01,2013-10-10 01:29:00,
2013-10-09 18:34:00,58.9,46.3,29.66,West,272,0.0,0.0,63,0.00,,---,0.00,VWS V14.01,2013-10-10 01:34:00,
2013-10-09 18:39:00,58.6,46.5,29.66,West,272,0.0,0.0,64,0.00,,---,0.00,VWS V14.01,2013-10-10 01:39:00,
2013-10-09 18:44:00,58.1,46.4,29.66,West,272,0.0,0.0,65,0.00,,---,0.00,VWS V14.01,2013-10-10 01:44:00,
2013-10-09 18:49:00,57.8,46.1,29.66,West,272,0.0,0.0,65,0.00,,---,0.00,VWS V14.01,2013-10-10 01:49:00,
2013-10-09 18:54:00,57.3,46.0,29.66,West,272,0.0,0.0,66,0.00,,---,0.00,VWS V14.01,2013-10-10 01:54:00,
2013-10-09 18:59:00,57.0,46.2,29.66,WSW,245,2.0,3.0,67,0.00,,---,0.00,VWS V14.01,2013-10-10 01:59:00,
2013-10-09 19:04:00,56.9,46.1,29.67,WSW,245,0.0,0.0,67,0.00,,---,0.00,VWS V14.01,2013-10-10 02:04:00,
2013-10-09 19:09:00,56.6,46.2,29.67,WSW,245,0.0,0.0,68,0.00,,---,0.00,VWS V14.01,2013-10-10 02:09:00,
2013-10-09 19:14:00,56.2,45.8,29.67,WSW,245,0.0,0.0,68,0.00,,---,0.00,VWS V14.01,2013-10-10 02:14:00,
2013-10-09 19:19:00,55.9,45.9,29.67,WSW,245,0.0,0.0,69,0.00,,---,0.00,VWS V14.01,2013-10-10 02:19:00,
2013-10-09 19:24:00,55.6,46.0,29.67,WSW,245,0.0,0.0,70,0.00,,---,0.00,VWS V14.01,2013-10-10 02:24:00,
2013-10-09 19:29:00,55.1,45.9,29.67,WSW,245,0.0,0.0,71,0.00,,---,0.00,VWS V14.01,2013-10-10 02:29:00,
2013-10-09 19:34:00,54.8,46.0,29.68,WSW,245,0.0,0.0,72,0.00,,---,0.00,VWS V14.01,2013-10-10 02:34:00,
2013-10-09 19:39:00,54.5,45.7,29.68,WSW,245,0.0,0.0,72,0.00,,---,0.00,VWS V14.01,2013-10-10 02:39:00,
2013-10-09 19:45:00,54.4,45.9,29.68,WSW,245,0.0,1.0,73,0.00,,---,0.00,VWS V14.01,2013-10-10 02:45:00,
2013-10-09 19:50:00,54.1,45.7,29.69,WSW,245,0.0,1.0,73,0.00,,---,0.00,VWS V14.01,2013-10-10 02:50:00,
2013-10-09 19:55:00,53.9,45.8,29.69,SW,236,0.0,1.0,74,0.00,,---,0.00,VWS V14.01,2013-10-10 02:55:00,
2013-10-09 20:00:00,53.9,45.8,29.69,SW,236,0.0,1.0,74,0.00,,---,0.00,VWS V14.01,2013-10-10 03:00:00,
2013-10-09 20:05:00,53.9,45.8,29.69,SW,236,0.0,0.0,74,0.00,,---,0.00,VWS V14.01,2013-10-10 03:05:00,
2013-10-09 20:10:00,53.8,45.7,29.69,SW,236,0.0,0.0,74,0.00,,---,0.00,VWS V14.01,2013-10-10 03:10:00,
2013-10-09 20:15:00,53.6,45.9,29.69,SW,235,0.0,3.0,75,0.00,,---,0.00,VWS V14.01,2013-10-10 03:15:00,
2013-10-09 20:20:00,53.5,45.8,29.69,SW,236,0.0,3.0,75,0.00,,---,0.00,VWS V14.01,2013-10-10 03:20:00,
2013-10-09 20:25:00,53.3,45.9,29.69,SW,236,0.0,3.0,76,0.00,,---,0.00,VWS V14.01,2013-10-10 03:25:00,
2013-10-09 20:30:00,53.1,45.8,29.69,SW,236,0.0,3.0,76,0.00,,---,0.00,VWS V14.01,2013-10-10 03:30:00,
2013-10-09 20:35:00,52.8,45.8,29.70,SW,236,0.0,0.0,77,0.00,,---,0.00,VWS V14.01,2013-10-10 03:35:00,
2013-10-09 20:40:00,52.6,46.0,29.70,SW,236,0.0,0.0,78,0.00,,---,0.00,VWS V14.01,2013-10-10 03:40:00,
2013-10-09 20:45:00,52.3,45.7,29.70,SW,236,0.0,0.0,78,0.00,,---,0.00,VWS V14.01,2013-10-10 03:45:00,
2013-10-09 20:50:00,52.2,45.6,29.70,SW,236,0.0,0.0,78,0.00,,---,0.00,VWS V14.01,2013-10-10 03:50:00,
2013-10-09 20:56:00,52.0,45.4,29.70,SW,236,0.0,0.0,78,0.00,,---,0.00,VWS V14.01,2013-10-10 03:56:00,
2013-10-09 21:01:00,51.7,45.4,29.70,SW,236,0.0,0.0,79,0.00,,---,0.00,VWS V14.01,2013-10-10 04:01:00,
2013-10-09 21:02:00,51.7,45.4,29.71,SW,236,0.0,0.0,79,0.00,,---,0.00,VWS V14.01,2013-10-10 04:02:00,
2013-10-09 21:07:00,51.4,45.5,29.71,WSW,237,0.0,0.0,80,0.00,,---,0.00,VWS V14.01,2013-10-10 04:07:00,
2013-10-09 21:12:00,51.3,45.7,29.71,WSW,240,0.0,0.0,81,0.00,,---,0.00,VWS V14.01,2013-10-10 04:12:00,
2013-10-09 21:17:00,51.1,45.5,29.71,WSW,238,0.0,0.0,81,0.00,,---,0.00,VWS V14.01,2013-10-10 04:17:00,
2013-10-09 21:23:00,51.0,45.7,29.71,WSW,238,0.0,0.0,82,0.00,,---,0.00,VWS V14.01,2013-10-10 04:23:00,
2013-10-09 21:28:00,50.8,45.8,29.71,WSW,238,0.0,0.0,83,0.00,,---,0.00,VWS V14.01,2013-10-10 04:28:00,
2013-10-09 21:33:00,50.8,45.8,29.71,WSW,238,0.0,0.0,83,0.00,,---,0.00,VWS V14.01,2013-10-10 04:33:00,
2013-10-09 21:38:00,50.7,46.0,29.71,WSW,238,0.0,0.0,84,0.00,,---,0.00,VWS V14.01,2013-10-10 04:38:00,
2013-10-09 21:43:00,50.5,45.8,29.71,WSW,238,0.0,0.0,84,0.00,,---,0.00,VWS V14.01,2013-10-10 04:43:00,
2013-10-09 21:48:00,50.5,46.2,29.72,WSW,238,0.0,0.0,85,0.00,,---,0.00,VWS V14.01,2013-10-10 04:48:00,
2013-10-09 21:53:00,50.4,46.1,29.72,WSW,238,0.0,0.0,85,0.00,,---,0.00,VWS V14.01,2013-10-10 04:53:00,
2013-10-09 21:58:00,50.2,46.2,29.72,WSW,238,0.0,0.0,86,0.00,,---,0.00,VWS V14.01,2013-10-10 04:58:00,
2013-10-09 22:03:00,50.1,46.1,29.72,WSW,238,0.0,0.0,86,0.00,,---,0.00,VWS V14.01,2013-10-10 05:03:00,
2013-10-09 22:08:00,49.9,45.9,29.72,WSW,238,0.0,0.0,86,0.00,,---,0.00,VWS V14.01,2013-10-10 05:08:00,
2013-10-09 22:13:00,49.8,45.8,29.72,WSW,238,0.0,0.0,86,0.00,,---,0.00,VWS V14.01,2013-10-10 05:13:00,
2013-10-09 22:18:00,49.5,45.8,29.72,WSW,238,0.0,0.0,87,0.00,,---,0.00,VWS V14.01,2013-10-10 05:18:00,
2013-10-09 22:23:00,49.5,46.1,29.72,WSW,238,0.0,0.0,88,0.00,,---,0.00,VWS V14.01,2013-10-10 05:23:00,
2013-10-09 22:28:00,49.4,46.0,29.72,WSW,238,0.0,0.0,88,0.00,,---,0.00,VWS V14.01,2013-10-10 05:28:00,
2013-10-09 22:33:00,49.2,46.1,29.72,WSW,238,0.0,0.0,89,0.00,,---,0.00,VWS V14.01,2013-10-10 05:33:00,
2013-10-09 22:39:00,49.2,46.1,29.72,WSW,238,0.0,0.0,89,0.00,,---,0.00,VWS V14.01,2013-10-10 05:39:00,
2013-10-09 22:44:00,49.2,46.1,29.72,WSW,238,0.0,0.0,89,0.00,,---,0.00,VWS V14.01,2013-10-10 05:44:00,
2013-10-09 22:49:00,49.2,46.1,29.73,WSW,238,0.0,0.0,89,0.00,,---,0.00,VWS V14.01,2013-10-10 05:49:00,
2013-10-09 22:54:00,49.4,46.6,29.73,WSW,238,0.0,0.0,90,0.00,,---,0.00,VWS V14.01,2013-10-10 05:54:00,
2013-10-09 22:59:00,49.5,46.7,29.73,WSW,238,0.0,0.0,90,0.00,,---,0.00,VWS V14.01,2013-10-10 05:59:00,
2013-10-09 23:04:00,49.5,46.7,29.73,WSW,238,0.0,0.0,90,0.00,,---,0.00,VWS V14.01,2013-10-10 06:04:00,
2013-10-09 23:09:00,49.4,46.6,29.73,WSW,238,0.0,0.0,90,0.00,,---,0.00,VWS V14.01,2013-10-10 06:09:00,
2013-10-09 23:14:00,49.4,46.9,29.73,WSW,238,0.0,0.0,91,0.00,,---,0.00,VWS V14.01,2013-10-10 06:14:00,
2013-10-09 23:19:00,49.8,47.6,29.74,WSW,238,0.0,3.0,92,0.00,,---,0.00,VWS V14.01,2013-10-10 06:19:00,
2013-10-09 23:24:00,49.9,47.4,29.74,WSW,238,0.0,3.0,91,0.00,,---,0.00,VWS V14.01,2013-10-10 06:24:00,
2013-10-09 23:29:00,49.8,47.3,29.74,WSW,238,0.0,3.0,91,0.00,,---,0.00,VWS V14.01,2013-10-10 06:29:00,
2013-10-09 23:34:00,49.8,47.3,29.73,WSW,238,0.0,0.0,91,0.00,,---,0.00,VWS V14.01,2013-10-10 06:34:00,
2013-10-09 23:40:00,49.6,47.4,29.73,WSW,238,0.0,0.0,92,0.00,,---,0.00,VWS V14.01,2013-10-10 06:40:00,
2013-10-09 23:45:00,49.5,47.3,29.73,WSW,238,0.0,0.0,92,0.00,,---,0.00,VWS V14.01,2013-10-10 06:45:00,
2013-10-09 23:50:00,49.4,47.2,29.74,WSW,238,0.0,0.0,92,0.00,,---,0.00,VWS V14.01,2013-10-10 06:50:00,
2013-10-09 23:55:00,49.1,46.9,29.74,WSW,238,0.0,0.0,92,0.00,,---,0.00,VWS V14.01,2013-10-10 06:55:00,